logo
Search for airport 
image banner adimage banner adimage banner ad
image banner ad

UASK - Ust-Kamenogorsk

Located in Ust-Kamenogorsk, Kazakhstan

ICAO - UASK, IATA - UKK

Data provided by Airmate  

General information

Coordinates: N50°2'9" E82°29'43"
Elevation is 942 feet MSL.
Magnetic variation is 6.27° East
View others Airports in East Kazakhstan

Operational data

Special qualification required
Current time UTC:
Current local time:
Weather
METAR: UASK 301800Z 15004MPS 9999 FEW120 15/09 Q1014 NOSIG RMK QFE735/0980
View NOTAMs / SUP AIP / TFR affecting this airport [VIEW]
Communications frequencies: [VIEW]

Runways:

RWY identifierQFULength (ft)Width (ft)SurfaceLDA (ft)
12131°9186148CONC+ASPH9186
30311°9186148CONC+ASPH9186

Airport contact information

Address: Ust-Kamenogorsk Kazakhstan

Satellite view of UASK